Погода в Малайере

Иран     34°17′19″N   48°49′16″E
темп.,
°C
ветер,
м/с
пор.,
м/с
влажн.,
%
обл.,
%
осадки,
мм/ч
давл.,
гПа
погр.,
м
9 мая, вс
вс901:30+12в11515 0.0 101310
04:30+11св11540 0.0 101310
07:30+13всв11500 0.0 101544
10:30+19з12320 0.0 10131315
13:30+23зсз34190 0.0 10102663
16:30+24зсз561812 0.0 10083437
19:30+21зсз582431 0.0 1008232
22:30+17юз22330 0.0 101012
10 мая, пн
пн1001:30+15юз22330 0.0 101111
04:30+12ююз11410 0.0 101211
07:30+15ю11360 0.0 101423
10:30+21юз1124100 0.0 10121547
13:30+24зсз461737 0.0 10103925
16:30+24юз571829 0.1 10092805
19:30+20зюз5729100 0.0 1011527
22:30+16ю44375 0.0 101450
11 мая, вт
вт1101:30+14ююв33382 0.0 101327
04:30+13ююв334126 0.0 101337
07:30+14ююв234038 0.0 1015100
10:30+23ююз3721100 0.0 10123005
13:30+23зсз7822100 0.1 10122433
16:30+15ссз4655100 1.0 1016243
19:30+18з1239100 0.0 101450
22:30+15в224491 0.0 101510
12 мая, ср
ср1201:30+13вюв225071 0.0 101510
04:30+13ссз1152100 0.0 101616
07:30+15вюв3445100 0.0 101684
10:30+21юз132998 0.0 10141148
13:30+23юз162398 0.1 10123156
16:30+21ю10932100 0.3 10121510
19:30+12сз3577100 3.3 1018173
22:30+13всв366697 3.6 1018231
13 мая, чт
чт1301:30+11ссв11720 0.0 101710
04:30+10ююв11725 0.0 101610
07:30+13св12590 0.0 101666
10:30+18ссв22400 0.0 1014841
13:30+23ссз44224 0.0 10112734
16:30+21ююв32312 0.1 1011919
19:30+17св811484 0.1 1014523
22:30+14сз455775 0.3 1017156